Time,TemperatureF,DewpointF,PressureIn,WindDirection,WindDirectionDegrees,WindSpeedMPH,WindSpeedGustMPH,Humidity,HourlyPrecipIn,Conditions,Clouds,dailyrainin,SoftwareType,DateUTC
2013-01-09 00:03:00,50.4,48.7,29.67,SSE,158,7.4,7.4,94,0.11,,,0.00,WUHU216HW,2013-01-09 08:03:00,
2013-01-09 00:08:00,50.2,48.5,29.67,SE,135,5.4,7.4,94,0.10,,,0.01,WUHU216HW,2013-01-09 08:08:00,
2013-01-09 00:13:00,50.2,48.5,29.67,SE,135,4.7,6.7,94,0.10,,,0.02,WUHU216HW,2013-01-09 08:13:00,
2013-01-09 00:18:00,50.2,48.5,29.67,SW,225,5.4,6.9,94,0.11,,,0.04,WUHU216HW,2013-01-09 08:18:00,
2013-01-09 00:23:00,50.2,48.5,29.67,NNE,23,2.5,6.9,94,0.09,,,0.04,WUHU216HW,2013-01-09 08:23:00,
2013-01-09 00:28:00,50.0,48.3,29.66,SE,135,4.7,5.4,94,0.11,,,0.04,WUHU216HW,2013-01-09 08:28:00,
2013-01-09 00:33:00,50.0,48.3,29.67,SE,135,7.8,7.8,94,0.12,,,0.07,WUHU216HW,2013-01-09 08:33:00,
2013-01-09 00:38:00,50.0,48.3,29.66,ENE,68,4.5,7.8,94,0.11,,,0.08,WUHU216HW,2013-01-09 08:38:00,
2013-01-09 00:43:00,50.0,48.3,29.67,SSE,158,2.2,7.8,94,0.12,,,0.09,WUHU216HW,2013-01-09 08:43:00,
2013-01-09 00:48:00,50.0,48.3,29.67,SSE,158,7.6,7.6,94,0.11,,,0.11,WUHU216HW,2013-01-09 08:48:00,
2013-01-09 00:53:00,50.0,48.3,29.67,SSE,158,2.5,7.6,94,0.12,,,0.11,WUHU216HW,2013-01-09 08:53:00,
2013-01-09 00:58:00,50.0,48.3,29.67,ESE,113,12.5,12.5,94,0.13,,,0.11,WUHU216HW,2013-01-09 08:58:00,
2013-01-09 01:03:00,50.0,48.3,29.67,NE,45,4.9,12.5,94,0.14,,,0.15,WUHU216HW,2013-01-09 09:03:00,
2013-01-09 01:08:00,50.0,48.3,29.67,SSE,158,9.8,9.8,94,0.13,,,0.15,WUHU216HW,2013-01-09 09:08:00,
2013-01-09 01:13:00,50.0,48.3,29.66,SE,135,5.4,9.8,94,0.13,,,0.15,WUHU216HW,2013-01-09 09:13:00,
2013-01-09 01:18:00,49.9,48.2,29.66,SE,135,4.0,9.8,94,0.13,,,0.16,WUHU216HW,2013-01-09 09:18:00,
2013-01-09 01:23:00,49.9,48.2,29.66,ESE,113,9.2,9.2,94,0.14,,,0.18,WUHU216HW,2013-01-09 09:23:00,
2013-01-09 01:28:00,49.9,48.2,29.66,SSE,158,9.2,9.2,94,0.12,,,0.18,WUHU216HW,2013-01-09 09:28:00,
2013-01-09 01:33:00,49.7,48.0,29.66,ESE,113,5.1,9.2,94,0.12,,,0.20,WUHU216HW,2013-01-09 09:33:00,
2013-01-09 01:38:00,49.7,47.7,29.67,ESE,113,2.9,9.2,93,0.11,,,0.20,WUHU216HW,2013-01-09 09:38:00,
2013-01-09 01:43:00,49.7,48.0,29.68,SE,135,2.0,5.1,94,0.13,,,0.23,WUHU216HW,2013-01-09 09:43:00,
2013-01-09 01:48:00,49.3,47.1,29.68,WSW,248,9.8,9.8,92,0.14,,,0.26,WUHU216HW,2013-01-09 09:48:00,
2013-01-09 01:53:00,49.1,46.9,29.67,SW,225,5.4,9.8,92,0.15,,,0.27,WUHU216HW,2013-01-09 09:53:00,
2013-01-09 01:58:00,48.6,46.5,29.67,SSE,158,2.9,5.4,92,0.14,,,0.28,WUHU216HW,2013-01-09 09:58:00,
2013-01-09 02:03:00,48.2,46.1,29.66,SSW,203,3.4,3.4,92,0.14,,,0.29,WUHU216HW,2013-01-09 10:03:00,
2013-01-09 02:08:00,47.9,45.7,29.66,SW,225,2.5,3.4,92,0.14,,,0.30,WUHU216HW,2013-01-09 10:08:00,
2013-01-09 02:13:00,47.7,45.3,29.66,East,90,1.8,3.4,91,0.13,,,0.30,WUHU216HW,2013-01-09 10:13:00,
2013-01-09 02:18:00,47.3,45.2,29.66,SE,135,0.9,2.5,92,0.13,,,0.31,WUHU216HW,2013-01-09 10:18:00,
2013-01-09 02:23:00,47.0,44.8,29.67,SE,135,0.2,6.9,92,0.13,,,0.31,WUHU216HW,2013-01-09 10:23:00,
2013-01-09 02:28:00,47.0,44.8,29.67,ESE,113,1.3,6.9,92,0.12,,,0.32,WUHU216HW,2013-01-09 10:28:00,
2013-01-09 02:33:00,46.8,44.6,29.67,East,90,1.3,1.3,92,0.12,,,0.32,WUHU216HW,2013-01-09 10:33:00,
2013-01-09 02:38:00,46.6,44.5,29.66,NE,45,1.8,1.8,92,0.13,,,0.33,WUHU216HW,2013-01-09 10:38:00,
2013-01-09 02:43:00,46.4,44.3,29.67,NE,45,0.4,4.7,92,0.11,,,0.34,WUHU216HW,2013-01-09 10:43:00,
2013-01-09 02:48:00,46.4,44.3,29.66,SE,135,1.1,4.7,92,0.09,,,0.35,WUHU216HW,2013-01-09 10:48:00,
2013-01-09 02:53:00,46.3,44.4,29.67,East,90,1.3,4.7,93,0.07,,,0.35,WUHU216HW,2013-01-09 10:53:00,
2013-01-09 02:58:00,46.1,43.9,29.65,WSW,248,1.3,4.7,92,0.07,,,0.35,WUHU216HW,2013-01-09 10:58:00,
2013-01-09 03:03:00,46.1,43.9,29.65,East,90,1.3,1.3,92,0.06,,,0.35,WUHU216HW,2013-01-09 11:03:00,
2013-01-09 03:08:00,45.9,44.0,29.65,South,180,4.5,4.5,93,0.05,,,0.35,WUHU216HW,2013-01-09 11:08:00,
2013-01-09 03:13:00,45.7,43.6,29.65,SSW,203,1.8,4.5,92,0.05,,,0.36,WUHU216HW,2013-01-09 11:13:00,
2013-01-09 03:18:00,45.7,43.6,29.65,SW,225,0.9,4.5,92,0.06,,,0.37,WUHU216HW,2013-01-09 11:18:00,
2013-01-09 03:23:00,45.5,43.4,29.65,East,90,1.6,1.8,92,0.07,,,0.38,WUHU216HW,2013-01-09 11:23:00,
2013-01-09 03:28:00,45.4,43.2,29.65,SE,135,2.9,4.0,92,0.08,,,0.40,WUHU216HW,2013-01-09 11:28:00,
2013-01-09 03:33:00,45.2,43.0,29.65,SW,225,3.1,4.0,92,0.10,,,0.42,WUHU216HW,2013-01-09 11:33:00,
2013-01-09 03:38:00,45.2,43.0,29.63,WSW,248,1.8,3.1,92,0.11,,,0.44,WUHU216HW,2013-01-09 11:38:00,
2013-01-09 03:43:00,45.0,42.8,29.63,SSE,158,4.3,4.5,92,0.13,,,0.47,WUHU216HW,2013-01-09 11:43:00,
2013-01-09 03:48:00,44.8,42.7,29.63,NNW,338,0.4,4.5,92,0.13,,,0.48,WUHU216HW,2013-01-09 11:48:00,
2013-01-09 03:53:00,44.8,42.7,29.63,West,270,2.2,4.3,92,0.15,,,0.50,WUHU216HW,2013-01-09 11:53:00,
2013-01-09 03:58:00,44.6,42.5,29.64,West,270,0.9,2.2,92,0.16,,,0.51,WUHU216HW,2013-01-09 11:58:00,
2013-01-09 04:03:00,44.6,42.5,29.64,East,90,2.2,3.6,92,0.18,,,0.53,WUHU216HW,2013-01-09 12:03:00,
2013-01-09 04:08:00,44.5,42.3,29.63,ENE,68,3.4,4.3,92,0.17,,,0.53,WUHU216HW,2013-01-09 12:08:00,
2013-01-09 04:13:00,44.5,42.3,29.62,SE,135,2.5,4.3,92,0.18,,,0.54,WUHU216HW,2013-01-09 12:13:00,
2013-01-09 04:18:00,44.3,42.1,29.62,SE,135,6.0,6.0,92,0.19,,,0.56,WUHU216HW,2013-01-09 12:18:00,
2013-01-09 04:23:00,44.3,42.1,29.62,SSE,158,1.3,6.0,92,0.19,,,0.56,WUHU216HW,2013-01-09 12:23:00,
2013-01-09 04:28:00,44.3,42.1,29.63,SSW,203,2.7,2.7,92,0.16,,,0.58,WUHU216HW,2013-01-09 12:28:00,
2013-01-09 04:33:00,44.1,42.2,29.62,NE,45,1.3,3.8,93,0.14,,,0.58,WUHU216HW,2013-01-09 12:33:00,
2013-01-09 04:38:00,44.1,42.2,29.62,SSW,203,1.8,3.8,93,0.13,,,0.59,WUHU216HW,2013-01-09 12:38:00,
2013-01-09 04:43:00,43.9,42.0,29.62,South,180,0.9,1.8,93,0.12,,,0.59,WUHU216HW,2013-01-09 12:43:00,
2013-01-09 04:48:00,43.9,42.0,29.61,ENE,68,0.7,1.8,93,0.10,,,0.60,WUHU216HW,2013-01-09 12:48:00,
2013-01-09 04:53:00,43.7,41.9,29.62,SSW,203,3.6,3.6,93,0.10,,,0.60,WUHU216HW,2013-01-09 12:53:00,
2013-01-09 04:58:00,43.7,41.9,29.61,South,180,2.5,3.6,93,0.10,,,0.61,WUHU216HW,2013-01-09 12:58:00,
2013-01-09 05:03:00,43.7,41.9,29.61,ESE,113,2.2,2.5,93,0.09,,,0.62,WUHU216HW,2013-01-09 13:03:00,
2013-01-09 05:08:00,43.6,41.7,29.61,SSE,158,2.0,2.5,93,0.09,,,0.63,WUHU216HW,2013-01-09 13:08:00,
2013-01-09 05:13:00,43.6,41.7,29.60,SW,225,1.8,2.5,93,0.08,,,0.64,WUHU216HW,2013-01-09 13:13:00,
2013-01-09 05:18:00,43.6,41.7,29.60,SE,135,2.9,6.3,93,0.08,,,0.64,WUHU216HW,2013-01-09 13:18:00,
2013-01-09 05:23:00,43.4,41.5,29.59,SE,135,0.9,6.3,93,0.08,,,0.65,WUHU216HW,2013-01-09 13:23:00,
2013-01-09 05:28:00,43.4,41.5,29.59,SE,135,2.0,4.0,93,0.08,,,0.65,WUHU216HW,2013-01-09 13:28:00,
2013-01-09 05:33:00,43.2,41.3,29.59,SE,135,2.0,5.4,93,0.07,,,0.66,WUHU216HW,2013-01-09 13:33:00,
2013-01-09 05:38:00,43.2,41.3,29.59,SW,225,0.7,5.4,93,0.08,,,0.67,WUHU216HW,2013-01-09 13:38:00,
2013-01-09 05:43:00,43.2,41.3,29.59,SE,135,1.8,2.9,93,0.08,,,0.67,WUHU216HW,2013-01-09 13:43:00,
2013-01-09 05:48:00,43.0,41.1,29.60,WSW,248,2.7,4.5,93,0.09,,,0.68,WUHU216HW,2013-01-09 13:48:00,
2013-01-09 05:53:00,43.0,41.1,29.60,SE,135,2.9,4.5,93,0.09,,,0.69,WUHU216HW,2013-01-09 13:53:00,
2013-01-09 05:58:00,42.8,41.0,29.60,SE,135,2.5,4.7,93,0.08,,,0.70,WUHU216HW,2013-01-09 13:58:00,
2013-01-09 06:03:00,42.8,41.0,29.60,ESE,113,0.4,4.7,93,0.09,,,0.71,WUHU216HW,2013-01-09 14:03:00,
2013-01-09 06:08:00,42.7,40.8,29.61,SSW,203,1.8,4.0,93,0.07,,,0.71,WUHU216HW,2013-01-09 14:08:00,
2013-01-09 06:13:00,42.7,40.8,29.61,SSW,203,1.8,4.0,93,0.08,,,0.72,WUHU216HW,2013-01-09 14:13:00,
2013-01-09 06:18:00,42.5,40.6,29.60,East,90,0.9,5.6,93,0.08,,,0.74,WUHU216HW,2013-01-09 14:18:00,
2013-01-09 06:23:00,42.5,40.6,29.61,SSE,158,2.0,5.6,93,0.09,,,0.74,WUHU216HW,2013-01-09 14:23:00,
2013-01-09 06:28:00,42.5,40.6,29.60,SW,225,0.9,2.9,93,0.08,,,0.74,WUHU216HW,2013-01-09 14:28:00,
2013-01-09 06:33:00,42.3,40.4,29.61,SSE,158,1.1,3.4,93,0.09,,,0.76,WUHU216HW,2013-01-09 14:33:00,
2013-01-09 06:38:00,42.3,40.4,29.61,SSW,203,0.4,3.4,93,0.09,,,0.76,WUHU216HW,2013-01-09 14:38:00,
2013-01-09 06:43:00,42.1,40.2,29.62,SSW,203,3.1,3.1,93,0.10,,,0.78,WUHU216HW,2013-01-09 14:43:00,
2013-01-09 06:48:00,42.1,40.2,29.62,SSW,203,0.4,3.1,93,0.09,,,0.78,WUHU216HW,2013-01-09 14:48:00,
2013-01-09 06:53:00,42.1,40.2,29.62,ESE,113,1.8,3.1,93,0.09,,,0.79,WUHU216HW,2013-01-09 14:53:00,
2013-01-09 06:58:00,42.1,40.2,29.62,SSW,203,1.1,1.8,93,0.09,,,0.79,WUHU216HW,2013-01-09 14:58:00,
2013-01-09 07:03:00,42.1,40.2,29.63,SSW,203,0.4,1.8,93,0.08,,,0.79,WUHU216HW,2013-01-09 15:03:00,
2013-01-09 07:08:00,42.1,40.2,29.63,SW,225,0.4,1.1,93,0.08,,,0.81,WUHU216HW,2013-01-09 15:08:00,
2013-01-09 07:13:00,42.1,40.2,29.63,SW,225,0.2,0.7,93,0.08,,,0.81,WUHU216HW,2013-01-09 15:13:00,
2013-01-09 07:18:00,42.1,40.2,29.63,WSW,248,0.0,0.2,93,0.08,,,0.81,WUHU216HW,2013-01-09 15:18:00,
2013-01-09 07:23:00,42.1,40.2,29.64,WSW,248,0.0,0.2,93,0.08,,,0.83,WUHU216HW,2013-01-09 15:23:00,
2013-01-09 07:28:00,42.1,40.2,29.63,WSW,248,0.0,0.0,93,0.08,,,0.83,WUHU216HW,2013-01-09 15:28:00,
2013-01-09 07:33:00,42.1,40.2,29.64,WSW,248,0.2,0.7,93,0.08,,,0.83,WUHU216HW,2013-01-09 15:33:00,
2013-01-09 07:38:00,42.1,40.2,29.64,WSW,248,0.4,0.7,93,0.08,,,0.85,WUHU216HW,2013-01-09 15:38:00,
2013-01-09 07:43:00,42.1,40.2,29.64,SW,225,0.7,1.1,93,0.07,,,0.85,WUHU216HW,2013-01-09 15:43:00,
2013-01-09 07:48:00,42.1,40.2,29.65,SW,225,0.0,1.1,93,0.07,,,0.85,WUHU216HW,2013-01-09 15:48:00,
2013-01-09 07:53:00,42.1,40.2,29.65,SE,135,0.7,0.7,93,0.07,,,0.87,WUHU216HW,2013-01-09 15:53:00,
2013-01-09 07:58:00,42.1,40.2,29.65,ESE,113,0.4,0.7,93,0.08,,,0.88,WUHU216HW,2013-01-09 15:58:00,
2013-01-09 08:03:00,42.1,40.2,29.65,ESE,113,0.4,0.7,93,0.09,,,0.88,WUHU216HW,2013-01-09 16:03:00,
2013-01-09 08:08:00,42.1,40.2,29.65,ESE,113,0.7,0.9,93,0.10,,,0.90,WUHU216HW,2013-01-09 16:08:00,
2013-01-09 08:13:00,42.1,40.2,29.65,East,90,0.9,0.9,93,0.10,,,0.92,WUHU216HW,2013-01-09 16:13:00,
2013-01-09 08:18:00,42.1,40.2,29.65,East,90,0.0,0.9,93,0.10,,,0.93,WUHU216HW,2013-01-09 16:18:00,
2013-01-09 08:23:00,41.9,40.3,29.66,ENE,68,0.0,0.9,94,0.11,,,0.94,WUHU216HW,2013-01-09 16:23:00,
2013-01-09 08:28:00,41.9,40.3,29.65,NW,315,1.1,1.1,94,0.11,,,0.95,WUHU216HW,2013-01-09 16:28:00,
2013-01-09 08:33:00,41.9,40.3,29.67,North,0,0.7,1.1,94,0.12,,,0.96,WUHU216HW,2013-01-09 16:33:00,
2013-01-09 08:38:00,41.9,40.3,29.67,North,0,0.2,1.1,94,0.11,,,0.96,WUHU216HW,2013-01-09 16:38:00,
2013-01-09 08:43:00,41.9,40.3,29.67,North,0,0.0,0.7,94,0.12,,,0.97,WUHU216HW,2013-01-09 16:43:00,
2013-01-09 08:48:00,41.9,40.3,29.67,North,0,0.0,0.2,94,0.11,,,0.98,WUHU216HW,2013-01-09 16:48:00,
2013-01-09 08:53:00,41.9,40.3,29.67,NNE,23,0.4,0.4,94,0.10,,,0.98,WUHU216HW,2013-01-09 16:53:00,
2013-01-09 08:58:00,41.9,40.3,29.67,East,90,0.4,0.7,94,0.11,,,0.99,WUHU216HW,2013-01-09 16:58:00,
2013-01-09 09:03:00,41.9,40.3,29.67,NE,45,0.0,0.7,94,0.10,,,0.99,WUHU216HW,2013-01-09 17:03:00,
2013-01-09 09:08:00,41.9,40.3,29.67,NNW,338,0.0,0.4,94,0.08,,,0.99,WUHU216HW,2013-01-09 17:08:00,
2013-01-09 09:13:00,41.9,40.3,29.67,SSW,203,1.3,1.3,94,0.07,,,0.99,WUHU216HW,2013-01-09 17:13:00,
2013-01-09 09:18:00,41.8,40.1,29.67,SSW,203,0.4,1.3,94,0.07,,,1.00,WUHU216HW,2013-01-09 17:18:00,
2013-01-09 09:23:00,41.8,40.1,29.67,ESE,113,0.4,1.3,94,0.06,,,1.00,WUHU216HW,2013-01-09 17:23:00,
2013-01-09 09:28:00,41.8,40.1,29.68,ESE,113,1.3,1.8,94,0.04,,,1.00,WUHU216HW,2013-01-09 17:28:00,
2013-01-09 09:33:00,41.8,40.1,29.68,WNW,293,0.2,1.8,94,0.04,,,1.00,WUHU216HW,2013-01-09 17:33:00,
2013-01-09 09:38:00,41.9,40.3,29.68,ENE,68,1.8,1.8,94,0.04,,,1.00,WUHU216HW,2013-01-09 17:38:00,
2013-01-09 09:43:00,41.9,40.3,29.67,NNE,23,1.8,2.2,94,0.03,,,1.00,WUHU216HW,2013-01-09 17:43:00,
2013-01-09 09:48:00,41.9,40.3,29.67,ENE,68,0.7,2.2,94,0.02,,,1.00,WUHU216HW,2013-01-09 17:48:00,
2013-01-09 09:53:00,41.9,40.3,29.67,East,90,1.8,4.3,94,0.01,,,1.00,WUHU216HW,2013-01-09 17:53:00,
2013-01-09 09:58:00,42.1,40.5,29.67,NNE,23,0.4,4.3,94,0.01,,,1.00,WUHU216HW,2013-01-09 17:58:00,
2013-01-09 10:03:00,42.1,40.5,29.67,ESE,113,1.8,4.7,94,0.01,,,1.00,WUHU216HW,2013-01-09 18:03:00,
2013-01-09 10:08:00,42.1,40.5,29.68,East,90,4.9,4.9,94,0.01,,,1.00,WUHU216HW,2013-01-09 18:08:00,
2013-01-09 10:13:00,42.1,40.5,29.67,NNE,23,2.5,4.9,94,0.01,,,1.00,WUHU216HW,2013-01-09 18:13:00,
2013-01-09 10:18:00,42.1,40.5,29.68,North,0,1.8,4.9,94,0.00,,,1.00,WUHU216HW,2013-01-09 18:18:00,
2013-01-09 10:23:00,42.1,40.5,29.68,ESE,113,0.7,3.4,94,0.00,,,1.00,WUHU216HW,2013-01-09 18:23:00,
2013-01-09 10:28:00,42.1,40.5,29.69,ESE,113,1.1,2.0,94,0.00,,,1.00,WUHU216HW,2013-01-09 18:28:00,
2013-01-09 10:33:00,42.3,40.7,29.69,NE,45,0.4,2.0,94,0.00,,,1.00,WUHU216HW,2013-01-09 18:33:00,
2013-01-09 10:38:00,42.3,40.7,29.69,ENE,68,0.0,1.6,94,0.00,,,1.00,WUHU216HW,2013-01-09 18:38:00,
2013-01-09 10:41:00,42.3,40.7,29.69,East,90,0.4,1.6,94,0.00,,,1.00,WUHU216HW,2013-01-09 18:41:00,
2013-01-09 10:42:00,42.3,40.7,29.69,East,90,0.4,1.6,94,0.00,,,1.00,WUHU216HW,2013-01-09 18:42:00,
2013-01-09 10:44:00,42.3,40.7,29.69,East,90,0.7,0.7,94,0.00,,,1.00,WUHU216HW,2013-01-09 18:44:00,
2013-01-09 10:48:00,42.5,40.9,29.69,ENE,68,1.6,1.6,94,0.00,,,1.00,WUHU216HW,2013-01-09 18:48:00,
2013-01-09 10:49:00,42.3,40.7,29.69,ENE,68,2.0,2.0,94,0.00,,,1.00,WUHU216HW,2013-01-09 18:49:00,
2013-01-09 10:54:00,42.5,40.9,29.69,East,90,0.4,2.0,94,0.00,,,1.00,WUHU216HW,2013-01-09 18:54:00,
2013-01-09 10:59:00,42.5,40.9,29.69,NNE,23,0.4,1.8,94,0.00,,,1.00,WUHU216HW,2013-01-09 18:59:00,
2013-01-09 11:04:00,42.7,41.0,29.69,NE,45,1.3,3.4,94,0.00,,,1.00,WUHU216HW,2013-01-09 19:04:00,
2013-01-09 11:09:00,42.7,41.0,29.69,NE,45,2.5,3.4,94,0.00,,,1.00,WUHU216HW,2013-01-09 19:09:00,
2013-01-09 11:14:00,42.7,41.0,29.69,East,90,4.3,4.3,94,0.00,,,1.00,WUHU216HW,2013-01-09 19:14:00,
2013-01-09 11:19:00,42.8,41.2,29.69,SE,135,2.2,4.3,94,0.00,,,1.00,WUHU216HW,2013-01-09 19:19:00,
2013-01-09 11:24:00,42.8,41.2,29.69,SE,135,2.9,4.3,94,0.00,,,1.00,WUHU216HW,2013-01-09 19:24:00,
2013-01-09 11:29:00,43.0,41.4,29.69,SSE,158,1.3,2.9,94,0.00,,,1.00,WUHU216HW,2013-01-09 19:29:00,
2013-01-09 11:34:00,43.2,41.6,29.69,East,90,1.6,4.7,94,0.00,,,1.00,WUHU216HW,2013-01-09 19:34:00,
2013-01-09 11:39:00,43.2,41.6,29.68,SSE,158,0.4,4.7,94,0.00,,,1.00,WUHU216HW,2013-01-09 19:39:00,
2013-01-09 11:44:00,43.6,41.9,29.68,ESE,113,0.4,1.6,94,0.00,,,1.00,WUHU216HW,2013-01-09 19:44:00,
2013-01-09 11:49:00,43.6,41.7,29.68,South,180,1.8,4.7,93,0.00,,,1.00,WUHU216HW,2013-01-09 19:49:00,
2013-01-09 11:54:00,43.7,41.9,29.68,SW,225,1.8,4.7,93,0.00,,,1.00,WUHU216HW,2013-01-09 19:54:00,
2013-01-09 11:59:00,43.7,41.9,29.68,WSW,248,2.2,2.2,93,0.00,,,1.00,WUHU216HW,2013-01-09 19:59:00,
2013-01-09 12:04:00,43.9,42.0,29.68,WNW,293,0.0,2.2,93,0.00,,,1.00,WUHU216HW,2013-01-09 20:04:00,
2013-01-09 12:09:00,44.1,42.2,29.68,ESE,113,2.2,2.2,93,0.00,,,1.00,WUHU216HW,2013-01-09 20:09:00,
2013-01-09 12:14:00,44.1,42.2,29.68,SSW,203,3.1,3.1,93,0.00,,,1.00,WUHU216HW,2013-01-09 20:14:00,
2013-01-09 12:19:00,44.3,42.4,29.67,WSW,248,0.9,3.8,93,0.00,,,1.00,WUHU216HW,2013-01-09 20:19:00,
2013-01-09 12:24:00,44.3,42.4,29.67,SSW,203,1.6,4.7,93,0.00,,,1.00,WUHU216HW,2013-01-09 20:24:00,
2013-01-09 12:29:00,44.5,42.6,29.68,ENE,68,1.1,4.7,93,0.00,,,1.00,WUHU216HW,2013-01-09 20:29:00,
2013-01-09 12:34:00,44.5,42.3,29.68,NNW,338,0.7,2.2,92,0.00,,,1.00,WUHU216HW,2013-01-09 20:34:00,
2013-01-09 12:39:00,44.6,42.5,29.67,SE,135,0.4,2.5,92,0.00,,,1.00,WUHU216HW,2013-01-09 20:39:00,
2013-01-09 12:44:00,44.8,42.7,29.67,NE,45,0.0,2.7,92,0.00,,,1.00,WUHU216HW,2013-01-09 20:44:00,
2013-01-09 12:49:00,45.0,42.8,29.67,West,270,0.7,2.7,92,0.00,,,1.00,WUHU216HW,2013-01-09 20:49:00,
2013-01-09 12:54:00,45.0,42.8,29.68,WSW,248,0.9,0.9,92,0.00,,,1.00,WUHU216HW,2013-01-09 20:54:00,
2013-01-09 12:59:00,45.0,42.6,29.68,SE,135,1.8,3.1,91,0.00,,,1.00,WUHU216HW,2013-01-09 20:59:00,
2013-01-09 13:04:00,45.2,42.8,29.68,ESE,113,3.8,3.8,91,0.00,,,1.00,WUHU216HW,2013-01-09 21:04:00,
2013-01-09 13:09:00,45.2,42.8,29.68,ESE,113,2.5,3.8,91,0.00,,,1.00,WUHU216HW,2013-01-09 21:09:00,
2013-01-09 13:14:00,45.2,42.8,29.68,SW,225,6.3,6.3,91,0.00,,,1.00,WUHU216HW,2013-01-09 21:14:00,
2013-01-09 13:19:00,45.2,42.8,29.68,West,270,5.4,6.3,91,0.00,,,1.00,WUHU216HW,2013-01-09 21:19:00,
2013-01-09 13:24:00,45.2,42.8,29.69,SE,135,4.0,6.3,91,0.00,,,1.00,WUHU216HW,2013-01-09 21:24:00,
2013-01-09 13:29:00,45.2,42.8,29.69,SE,135,2.5,5.6,91,0.00,,,1.00,WUHU216HW,2013-01-09 21:29:00,
2013-01-09 13:34:00,45.0,42.6,29.69,SE,135,4.0,4.0,91,0.00,,,1.00,WUHU216HW,2013-01-09 21:34:00,
2013-01-09 13:39:00,45.0,42.6,29.69,SW,225,0.0,4.0,91,0.00,,,1.00,WUHU216HW,2013-01-09 21:39:00,
2013-01-09 13:44:00,45.0,42.6,29.70,NE,45,0.7,4.5,91,0.00,,,1.00,WUHU216HW,2013-01-09 21:44:00,
2013-01-09 13:49:00,45.0,42.6,29.70,ESE,113,0.4,4.5,91,0.00,,,1.00,WUHU216HW,2013-01-09 21:49:00,
2013-01-09 13:54:00,45.2,42.5,29.70,SW,225,0.2,3.1,90,0.00,,,1.00,WUHU216HW,2013-01-09 21:54:00,
2013-01-09 13:59:00,45.0,42.3,29.70,NNE,23,1.1,3.6,90,0.00,,,1.00,WUHU216HW,2013-01-09 21:59:00,
2013-01-09 14:04:00,45.0,42.3,29.70,SSW,203,2.0,3.6,90,0.00,,,1.00,WUHU216HW,2013-01-09 22:04:00,
2013-01-09 14:09:00,45.0,42.3,29.70,West,270,1.1,3.1,90,0.00,,,1.00,WUHU216HW,2013-01-09 22:09:00,
2013-01-09 14:14:00,45.0,42.3,29.71,ESE,113,1.8,3.4,90,0.00,,,1.00,WUHU216HW,2013-01-09 22:14:00,
2013-01-09 14:19:00,45.0,42.3,29.71,East,90,2.5,3.4,90,0.00,,,1.00,WUHU216HW,2013-01-09 22:19:00,
2013-01-09 14:24:00,45.0,42.3,29.71,SSE,158,6.3,6.3,90,0.00,,,1.00,WUHU216HW,2013-01-09 22:24:00,
2013-01-09 14:29:00,45.0,42.0,29.71,SE,135,5.4,6.3,89,0.00,,,1.00,WUHU216HW,2013-01-09 22:29:00,
2013-01-09 14:34:00,44.8,41.9,29.71,SE,135,4.0,6.3,89,0.00,,,1.00,WUHU216HW,2013-01-09 22:34:00,
2013-01-09 14:39:00,44.6,41.3,29.71,SW,225,0.7,5.4,88,0.00,,,1.00,WUHU216HW,2013-01-09 22:39:00,
2013-01-09 14:44:00,44.5,41.1,29.72,East,90,0.4,4.0,88,0.00,,,1.00,WUHU216HW,2013-01-09 22:44:00,
2013-01-09 14:49:00,44.3,41.0,29.72,ESE,113,5.1,5.1,88,0.00,,,1.00,WUHU216HW,2013-01-09 22:49:00,
2013-01-09 14:54:00,44.3,41.0,29.72,East,90,3.4,5.1,88,0.00,,,1.00,WUHU216HW,2013-01-09 22:54:00,
2013-01-09 14:59:00,44.1,40.8,29.72,WSW,248,0.7,5.1,88,0.00,,,1.00,WUHU216HW,2013-01-09 22:59:00,
2013-01-09 15:04:00,44.1,40.8,29.73,East,90,3.4,3.4,88,0.00,,,1.00,WUHU216HW,2013-01-09 23:04:00,
2013-01-09 15:09:00,43.9,40.6,29.73,ENE,68,0.9,4.7,88,0.00,,,1.00,WUHU216HW,2013-01-09 23:09:00,
2013-01-09 15:14:00,43.7,40.4,29.74,WSW,248,0.7,4.7,88,0.00,,,1.00,WUHU216HW,2013-01-09 23:14:00,
2013-01-09 15:19:00,43.7,40.4,29.74,WSW,248,1.8,1.8,88,0.00,,,1.00,WUHU216HW,2013-01-09 23:19:00,
2013-01-09 15:24:00,43.6,40.2,29.74,South,180,0.2,1.8,88,0.00,,,1.00,WUHU216HW,2013-01-09 23:24:00,
2013-01-09 15:29:00,43.6,40.2,29.74,ENE,68,2.5,2.5,88,0.00,,,1.00,WUHU216HW,2013-01-09 23:29:00,
2013-01-09 15:34:00,43.6,40.2,29.75,South,180,0.2,2.5,88,0.00,,,1.00,WUHU216HW,2013-01-09 23:34:00,
2013-01-09 15:39:00,43.6,40.2,29.75,ESE,113,0.7,2.5,88,0.00,,,1.00,WUHU216HW,2013-01-09 23:39:00,
2013-01-09 15:44:00,43.4,40.1,29.75,WSW,248,0.0,0.7,88,0.00,,,1.00,WUHU216HW,2013-01-09 23:44:00,
2013-01-09 15:49:00,43.4,40.4,29.75,North,0,1.8,1.8,89,0.00,,,1.00,WUHU216HW,2013-01-09 23:49:00,
2013-01-09 15:54:00,43.4,40.1,29.75,WNW,293,0.4,1.8,88,0.00,,,1.00,WUHU216HW,2013-01-09 23:54:00,
2013-01-09 15:59:00,43.2,39.9,29.76,West,270,0.4,1.6,88,0.00,,,1.00,WUHU216HW,2013-01-09 23:59:00,
2013-01-09 16:04:00,43.0,39.7,29.76,SSE,158,1.8,1.8,88,0.00,,,1.00,WUHU216HW,2013-01-10 00:04:00,
2013-01-09 16:09:00,43.0,40.1,29.76,SW,225,0.4,1.8,89,0.00,,,1.00,WUHU216HW,2013-01-10 00:09:00,
2013-01-09 16:14:00,43.0,39.7,29.76,SSE,158,0.4,0.4,88,0.00,,,1.00,WUHU216HW,2013-01-10 00:14:00,
2013-01-09 16:19:00,43.0,40.1,29.77,SE,135,0.4,0.4,89,0.00,,,1.00,WUHU216HW,2013-01-10 00:19:00,
2013-01-09 16:24:00,42.8,39.9,29.77,SSE,158,0.0,0.4,89,0.00,,,1.00,WUHU216HW,2013-01-10 00:24:00,
2013-01-09 16:29:00,42.8,39.9,29.77,West,270,1.1,1.8,89,0.00,,,1.00,WUHU216HW,2013-01-10 00:29:00,
2013-01-09 16:34:00,42.8,39.9,29.77,WSW,248,1.1,1.8,89,0.00,,,1.00,WUHU216HW,2013-01-10 00:34:00,
2013-01-09 16:39:00,42.5,39.5,29.78,SSE,158,0.4,1.1,89,0.00,,,1.00,WUHU216HW,2013-01-10 00:39:00,
2013-01-09 16:44:00,42.3,39.3,29.78,SE,135,0.4,1.1,89,0.00,,,1.00,WUHU216HW,2013-01-10 00:44:00,
2013-01-09 16:49:00,42.1,39.2,29.78,SSW,203,0.7,1.8,89,0.00,,,1.00,WUHU216HW,2013-01-10 00:49:00,
2013-01-09 16:54:00,42.1,39.2,29.78,SSW,203,1.1,1.8,89,0.00,,,1.00,WUHU216HW,2013-01-10 00:54:00,
2013-01-09 16:59:00,41.9,39.0,29.78,SW,225,0.9,1.8,89,0.00,,,1.00,WUHU216HW,2013-01-10 00:59:00,
2013-01-09 17:04:00,41.6,38.6,29.78,SSE,158,1.3,2.5,89,0.00,,,1.00,WUHU216HW,2013-01-10 01:04:00,
2013-01-09 17:09:00,41.2,38.3,29.78,SSW,203,2.2,2.9,89,0.00,,,1.00,WUHU216HW,2013-01-10 01:09:00,
2013-01-09 17:14:00,41.0,38.1,29.78,SSE,158,1.3,2.9,89,0.00,,,1.00,WUHU216HW,2013-01-10 01:14:00,
2013-01-09 17:19:00,40.9,37.9,29.78,SSE,158,1.6,2.2,89,0.00,,,1.00,WUHU216HW,2013-01-10 01:19:00,
2013-01-09 17:24:00,40.7,37.7,29.78,SSW,203,2.5,2.5,89,0.00,,,1.00,WUHU216HW,2013-01-10 01:24:00,
2013-01-09 17:29:00,40.3,37.6,29.78,SSW,203,2.0,2.5,90,0.00,,,1.00,WUHU216HW,2013-01-10 01:29:00,
2013-01-09 17:34:00,40.1,37.4,29.78,SSW,203,2.5,2.5,90,0.00,,,1.00,WUHU216HW,2013-01-10 01:34:00,
2013-01-09 17:39:00,40.0,37.3,29.78,SW,225,1.8,2.5,90,0.00,,,1.00,WUHU216HW,2013-01-10 01:39:00,
2013-01-09 17:44:00,40.0,37.3,29.79,SW,225,1.1,2.5,90,0.00,,,1.00,WUHU216HW,2013-01-10 01:44:00,
2013-01-09 17:49:00,39.8,37.1,29.79,SSW,203,1.3,2.0,90,0.00,,,1.00,WUHU216HW,2013-01-10 01:49:00,
2013-01-09 17:54:00,39.6,36.9,29.80,SE,135,1.1,2.0,90,0.00,,,1.00,WUHU216HW,2013-01-10 01:54:00,
2013-01-09 17:59:00,39.4,36.7,29.80,SW,225,1.3,1.3,90,0.00,,,1.00,WUHU216HW,2013-01-10 01:59:00,
2013-01-09 18:04:00,39.2,36.5,29.80,SW,225,1.1,2.0,90,0.00,,,1.00,WUHU216HW,2013-01-10 02:04:00,
2013-01-09 18:09:00,39.1,36.4,29.80,SSW,203,1.3,2.2,90,0.00,,,1.00,WUHU216HW,2013-01-10 02:09:00,
2013-01-09 18:14:00,38.9,36.2,29.80,SW,225,0.4,2.2,90,0.00,,,1.00,WUHU216HW,2013-01-10 02:14:00,
2013-01-09 18:19:00,38.7,36.0,29.81,SSE,158,0.9,1.6,90,0.00,,,1.00,WUHU216HW,2013-01-10 02:19:00,
2013-01-09 18:24:00,38.5,35.8,29.81,SSW,203,0.9,1.6,90,0.00,,,1.00,WUHU216HW,2013-01-10 02:24:00,
2013-01-09 18:29:00,38.5,35.8,29.81,SSW,203,1.3,2.5,90,0.00,,,1.00,WUHU216HW,2013-01-10 02:29:00,
2013-01-09 18:34:00,38.3,35.6,29.81,NNW,338,1.1,4.9,90,0.00,,,1.00,WUHU216HW,2013-01-10 02:34:00,
2013-01-09 18:39:00,38.2,35.7,29.81,SSW,203,1.8,4.9,91,0.00,,,1.00,WUHU216HW,2013-01-10 02:39:00,
2013-01-09 18:44:00,38.2,35.7,29.81,SW,225,1.3,2.2,91,0.00,,,1.00,WUHU216HW,2013-01-10 02:44:00,
2013-01-09 18:49:00,38.2,35.5,29.81,SSW,203,1.1,1.8,90,0.00,,,1.00,WUHU216HW,2013-01-10 02:49:00,
2013-01-09 18:54:00,38.2,35.5,29.81,South,180,1.1,1.3,90,0.00,,,1.00,WUHU216HW,2013-01-10 02:54:00,
2013-01-09 18:59:00,38.2,35.5,29.81,SSW,203,2.0,3.8,90,0.00,,,1.00,WUHU216HW,2013-01-10 02:59:00,
2013-01-09 19:04:00,38.2,35.5,29.81,SSW,203,1.8,3.8,90,0.00,,,1.00,WUHU216HW,2013-01-10 03:04:00,
2013-01-09 19:09:00,38.2,35.5,29.82,WSW,248,0.2,2.5,90,0.00,,,1.00,WUHU216HW,2013-01-10 03:09:00,
2013-01-09 19:14:00,38.0,35.3,29.82,South,180,2.0,2.5,90,0.00,,,1.00,WUHU216HW,2013-01-10 03:14:00,
2013-01-09 19:19:00,38.0,35.3,29.82,SE,135,1.3,2.5,90,0.00,,,1.00,WUHU216HW,2013-01-10 03:19:00,
2013-01-09 19:24:00,38.0,35.3,29.82,SW,225,0.4,2.5,90,0.00,,,1.00,WUHU216HW,2013-01-10 03:24:00,
2013-01-09 19:29:00,38.0,35.3,29.82,SE,135,0.2,2.5,90,0.00,,,1.00,WUHU216HW,2013-01-10 03:29:00,
2013-01-09 19:34:00,37.8,35.1,29.82,SSE,158,0.0,1.6,90,0.00,,,1.00,WUHU216HW,2013-01-10 03:34:00,
2013-01-09 19:39:00,37.8,35.1,29.83,WSW,248,1.6,1.6,90,0.00,,,1.00,WUHU216HW,2013-01-10 03:39:00,
2013-01-09 19:44:00,37.8,35.1,29.83,WSW,248,0.0,1.6,90,0.00,,,1.00,WUHU216HW,2013-01-10 03:44:00,
2013-01-09 19:49:00,37.8,35.1,29.83,SW,225,0.4,1.1,90,0.00,,,1.00,WUHU216HW,2013-01-10 03:49:00,
2013-01-09 19:54:00,37.6,34.9,29.83,SW,225,0.0,1.1,90,0.00,,,1.00,WUHU216HW,2013-01-10 03:54:00,
2013-01-09 19:59:00,37.6,34.9,29.83,SSE,158,0.7,1.1,90,0.00,,,1.00,WUHU216HW,2013-01-10 03:59:00,
2013-01-09 20:04:00,37.4,34.7,29.83,SSW,203,0.4,0.7,90,0.00,,,1.00,WUHU216HW,2013-01-10 04:04:00,
2013-01-09 20:09:00,37.4,34.7,29.83,SE,135,0.9,1.3,90,0.00,,,1.00,WUHU216HW,2013-01-10 04:09:00,
2013-01-09 20:14:00,37.3,34.6,29.84,ESE,113,0.9,1.3,90,0.00,,,1.00,WUHU216HW,2013-01-10 04:14:00,
2013-01-09 20:19:00,37.1,34.4,29.84,ESE,113,0.9,1.1,90,0.00,,,1.00,WUHU216HW,2013-01-10 04:19:00,
2013-01-09 20:24:00,37.1,34.4,29.84,SSW,203,0.0,1.1,90,0.00,,,1.00,WUHU216HW,2013-01-10 04:24:00,
2013-01-09 20:29:00,36.9,34.2,29.84,SSW,203,0.4,1.1,90,0.00,,,1.00,WUHU216HW,2013-01-10 04:29:00,
2013-01-09 20:34:00,36.5,33.8,29.84,SSW,203,0.4,1.1,90,0.00,,,1.00,WUHU216HW,2013-01-10 04:34:00,
2013-01-09 20:39:00,36.4,33.7,29.84,SSW,203,0.7,1.1,90,0.00,,,1.00,WUHU216HW,2013-01-10 04:39:00,
2013-01-09 20:44:00,36.4,33.9,29.84,SSW,203,1.1,1.1,91,0.00,,,1.00,WUHU216HW,2013-01-10 04:44:00,
2013-01-09 20:49:00,36.2,33.8,29.84,South,180,1.1,1.3,91,0.00,,,1.00,WUHU216HW,2013-01-10 04:49:00,
2013-01-09 20:54:00,36.0,33.6,29.85,SSW,203,1.1,1.3,91,0.00,,,1.00,WUHU216HW,2013-01-10 04:54:00,
2013-01-09 20:59:00,36.0,33.6,29.85,SW,225,1.1,1.8,91,0.00,,,1.00,WUHU216HW,2013-01-10 04:59:00,
2013-01-09 21:00:00,36.0,33.6,29.85,SW,225,1.1,1.8,91,0.00,,,1.00,WUHU216HW,2013-01-10 05:00:00,
2013-01-09 21:01:00,35.8,33.4,29.85,SW,225,1.1,1.8,91,0.00,,,1.00,WUHU216HW,2013-01-10 05:01:00,
2013-01-09 21:02:00,35.8,33.4,29.85,SW,225,0.4,1.8,91,0.00,,,1.00,WUHU216HW,2013-01-10 05:02:00,
2013-01-09 21:07:00,35.6,33.2,29.85,SW,225,1.1,1.1,91,0.00,,,1.00,WUHU216HW,2013-01-10 05:07:00,
2013-01-09 21:12:00,35.6,33.2,29.85,SSW,203,0.7,1.1,91,0.00,,,1.00,WUHU216HW,2013-01-10 05:12:00,
2013-01-09 21:17:00,35.5,33.0,29.85,SSW,203,1.1,1.1,91,0.00,,,1.00,WUHU216HW,2013-01-10 05:17:00,
2013-01-09 21:22:00,35.3,32.9,29.85,SSW,203,1.6,1.6,91,0.00,,,1.00,WUHU216HW,2013-01-10 05:22:00,
2013-01-09 21:27:00,35.1,32.7,29.85,SSW,203,1.8,1.8,91,0.00,,,1.00,WUHU216HW,2013-01-10 05:27:00,
2013-01-09 21:32:00,34.9,32.5,29.85,SSW,203,1.8,2.5,91,0.00,,,1.00,WUHU216HW,2013-01-10 05:32:00,
2013-01-09 21:37:00,34.9,32.5,29.85,SSW,203,1.8,2.7,91,0.00,,,1.00,WUHU216HW,2013-01-10 05:37:00,
2013-01-09 21:42:00,34.9,32.8,29.86,South,180,1.6,4.7,92,0.00,,,1.00,WUHU216HW,2013-01-10 05:42:00,
2013-01-09 21:47:00,34.9,32.8,29.86,South,180,1.8,4.7,92,0.00,,,1.00,WUHU216HW,2013-01-10 05:47:00,
2013-01-09 21:52:00,34.9,32.8,29.86,South,180,0.0,2.5,92,0.00,,,1.00,WUHU216HW,2013-01-10 05:52:00,
2013-01-09 21:57:00,34.7,32.6,29.86,South,180,0.9,1.1,92,0.00,,,1.00,WUHU216HW,2013-01-10 05:57:00,
2013-01-09 22:02:00,34.7,32.6,29.87,SSW,203,0.2,2.0,92,0.00,,,1.00,WUHU216HW,2013-01-10 06:02:00,
2013-01-09 22:07:00,34.6,32.4,29.87,SSW,203,0.7,2.0,92,0.00,,,1.00,WUHU216HW,2013-01-10 06:07:00,
2013-01-09 22:12:00,34.6,32.4,29.87,WSW,248,0.2,1.1,92,0.00,,,1.00,WUHU216HW,2013-01-10 06:12:00,
2013-01-09 22:17:00,34.6,32.4,29.88,WSW,248,0.0,1.1,92,0.00,,,1.00,WUHU216HW,2013-01-10 06:17:00,
2013-01-09 22:22:00,34.4,32.2,29.88,ESE,113,0.7,1.1,92,0.00,,,1.00,WUHU216HW,2013-01-10 06:22:00,
2013-01-09 22:27:00,34.2,32.0,29.88,SSE,158,0.7,1.6,92,0.00,,,1.00,WUHU216HW,2013-01-10 06:27:00,
2013-01-09 22:32:00,34.2,32.0,29.88,SSE,158,0.2,1.6,92,0.00,,,1.00,WUHU216HW,2013-01-10 06:32:00,
2013-01-09 22:37:00,33.8,31.7,29.87,SSW,203,1.8,1.8,92,0.00,,,1.00,WUHU216HW,2013-01-10 06:37:00,
2013-01-09 22:42:00,33.7,31.5,29.87,SSW,203,1.8,2.0,92,0.00,,,1.00,WUHU216HW,2013-01-10 06:42:00,
2013-01-09 22:47:00,33.7,31.5,29.87,SSW,203,1.8,2.2,92,0.00,,,1.00,WUHU216HW,2013-01-10 06:47:00,
2013-01-09 22:52:00,33.5,31.3,29.88,SSW,203,1.3,2.2,92,0.00,,,1.00,WUHU216HW,2013-01-10 06:52:00,
2013-01-09 22:57:00,33.5,31.3,29.87,SSW,203,1.1,2.2,92,0.00,,,1.00,WUHU216HW,2013-01-10 06:57:00,
2013-01-09 23:02:00,33.5,31.3,29.87,WSW,248,1.1,3.1,92,0.00,,,1.00,WUHU216HW,2013-01-10 07:02:00,
2013-01-09 23:07:00,33.5,31.3,29.88,SSE,158,0.4,3.1,92,0.00,,,1.00,WUHU216HW,2013-01-10 07:07:00,
2013-01-09 23:12:00,33.3,31.4,29.88,NE,45,0.0,1.1,93,0.00,,,1.00,WUHU216HW,2013-01-10 07:12:00,
2013-01-09 23:17:00,33.3,31.4,29.88,East,90,1.1,1.1,93,0.00,,,1.00,WUHU216HW,2013-01-10 07:17:00,
2013-01-09 23:22:00,33.3,31.1,29.88,SE,135,3.1,3.1,92,0.00,,,1.00,WUHU216HW,2013-01-10 07:22:00,
2013-01-09 23:27:00,33.1,31.1,29.87,SE,135,2.0,3.1,92,0.00,,,1.00,WUHU216HW,2013-01-10 07:27:00,
2013-01-09 23:32:00,33.1,31.1,29.87,ESE,113,0.9,2.7,92,0.00,,,1.00,WUHU216HW,2013-01-10 07:32:00,
2013-01-09 23:37:00,33.1,31.1,29.87,SSW,203,3.1,3.1,92,0.00,,,1.00,WUHU216HW,2013-01-10 07:37:00,
2013-01-09 23:42:00,33.1,31.1,29.87,SW,225,0.9,3.1,92,0.00,,,1.00,WUHU216HW,2013-01-10 07:42:00,
2013-01-09 23:47:00,33.3,31.1,29.87,South,180,1.6,1.6,92,0.00,,,1.00,WUHU216HW,2013-01-10 07:47:00,
2013-01-09 23:52:00,33.5,31.3,29.88,West,270,0.7,2.7,92,0.00,,,1.00,WUHU216HW,2013-01-10 07:52:00,
2013-01-09 23:57:00,33.5,31.6,29.88,West,270,0.7,2.7,93,0.00,,,1.00,WUHU216HW,2013-01-10 07:57:00,